Location: Newark
(41.1192°N, 81.5292°W)
Time: 20:44:50
(UTC+00:00)

N. Korean satellite - Pass Details

Date: 20 November 2019
Orbit: 456 x 506 km, 97.2° (Epoch: 06 December)

Event Time Altitude Azimuth Distance (km) Brightness Sun altitude
Rises 10:26:34 0° 28° (NNE) 2,608 10.5 -21.1°
Reaches altitude 10° 10:29:11 10° 48° (NE) 1,712 9.8 -20.6°
Maximum altitude 10:31:48 18° 93° (E) 1,265 9.6 -20.1°
Drops below altitude 10° 10:34:23 10° 139° (SE) 1,684 10.0 -19.7°
Sets 10:36:55 0° 158° (SSE) 2,550 10.7 -19.2°
